Вернуться в каталог

HERMES-5

АктивенСвязьSSO
NORAD 63834·PAYLOAD·🇮🇹 Italy

Запущен Mar 15, 2025 с Vandenberg Space Force Base

Loading…

Ближайшие Пролёты (ближайшие 24 часа)

TLE

СвежийSource: Space-Track

Эпоха: Sep 14, 2026, 03:58 UTC

1 63834U 25052BQ  26257.16583947  .00005061  00000-0  17641-3 0  9997
2 63834  97.3836 151.0628 0003926 164.3037 195.8326 15.30088095 83553

Отслеживайте HERMES-5 в реальном времени с AllMySat

Download on the App Store